Teterboro, NJ

10:14 PM EDT on September 28, 2016 (GMT -0400)
Teterboro

Weather History for KTEB - June, 2012

Change the Weather History Date:

Saturday, June 16, 2012

  Actual Average Record
Temperature  
Mean Temperature 68 °F -  
Max Temperature 80 °F 78 °F 93 °F (2000)
Min Temperature 57 °F 59 °F 51 °F (1997)
Cooling Degree Days 3    
Growing Degree Days 18 (Base 50)    
Moisture  
Dew Point 53 °F    
Average Humidity 61    
Maximum Humidity 87    
Minimum Humidity 35    
Precipitation  
Precipitation 0.00 in - - ()
Sea Level Pressure  
Sea Level Pressure 30.27 in    
Wind  
Wind Speed 4 mph (SE)    
Max Wind Speed 13 mph    
Max Gust Speed 20 mph    
Visibility 10 miles    
Events      
Averages and records for this station are not official NWS values.
T = Trace of Precipitation, MM = Missing Value Source: NWS Daily Summary

Daily Weather History Graph

Daily Weather History Graph

Search for Another Location

Airport or City:

Trip Planner

Search our weather history database for the weather conditions in past years. The results will help you decide how hot, cold, wet, or windy it might be!

Date:

Astronomy

Jun. 16, 2012 Rise Set
Actual Time 5:24 AM EDT 8:30 PM EDT
Civil Twilight 4:50 AM EDT 9:03 PM EDT
Nautical Twilight 4:07 AM EDT 9:46 PM EDT
Astronomical Twilight 3:17 AM EDT 10:37 PM EDT
Moon 3:12 AM EDT (6/16) 6:02 PM EDT (6/16)
Length of Visible Light 16h 13m
Length of Day
15h 06m
Waning Crescent, 8% of the Moon is Illuminated
Jun 16
Waning Crescent
Jun 19
New
Jun 26
First Quarter
Jul 3
Full
Jul 10
Last Quarter

Hourly Weather History & Observations

Time (EDT) Temp. Dew Point Humidity Pressure Visibility Wind Dir Wind Speed Gust Speed Precip Events Conditions
12:51 AM 66.0 °F 52.0 °F 60% 30.29 in 10.0 mi SE 3.5 mph - N/A   Clear
1:51 AM 63.0 °F 52.0 °F 67% 30.29 in 10.0 mi Calm Calm - N/A   Clear
2:51 AM 61.0 °F 53.1 °F 75% 30.29 in 10.0 mi Calm Calm - N/A   Clear
3:51 AM 59.0 °F 53.1 °F 81% 30.27 in 10.0 mi Calm Calm - N/A   Clear
4:51 AM 57.0 °F 53.1 °F 87% 30.28 in 10.0 mi NNW 4.6 mph - N/A   Clear
5:51 AM 57.9 °F 53.1 °F 84% 30.30 in 10.0 mi Calm Calm - N/A   Clear
6:51 AM 61.0 °F 54.0 °F 78% 30.31 in 10.0 mi NNW 5.8 mph - N/A   Clear
7:51 AM 66.2 °F 55.4 °F 68% 30.32 in 10.0 mi NNE 4.6 mph - N/A   Clear
8:51 AM 72.0 °F 54.0 °F 53% 30.32 in 10.0 mi Variable 4.6 mph - N/A   Clear
9:51 AM 73.9 °F 53.1 °F 48% 30.32 in 10.0 mi Calm Calm - N/A   Clear
10:51 AM 75.2 °F 48.2 °F 38% 30.32 in 10.0 mi East 4.6 mph - N/A   Clear
11:51 AM 75.9 °F 50.0 °F 40% 30.31 in 10.0 mi Variable 4.6 mph - N/A   Partly Cloudy
12:51 PM 77.0 °F 51.1 °F 40% 30.29 in 10.0 mi Variable 5.8 mph - N/A   Scattered Clouds
1:51 PM 79.0 °F 51.1 °F 38% 30.27 in 10.0 mi ENE 9.2 mph - N/A   Clear
2:51 PM 78.1 °F 50.0 °F 37% 30.25 in 10.0 mi East 5.8 mph - N/A   Clear
3:51 PM 79.0 °F 48.9 °F 35% 30.23 in 10.0 mi East 6.9 mph - N/A   Clear
4:51 PM 75.9 °F 54.0 °F 46% 30.23 in 10.0 mi SSE 12.7 mph 19.6 mph N/A   Scattered Clouds
5:51 PM 73.9 °F 54.0 °F 50% 30.22 in 10.0 mi South 12.7 mph - N/A   Clear
6:51 PM 72.0 °F 55.9 °F 57% 30.22 in 10.0 mi South 10.4 mph - N/A   Clear
7:51 PM 69.1 °F 55.0 °F 61% 30.22 in 10.0 mi South 5.8 mph - N/A   Clear
8:51 PM 66.9 °F 55.9 °F 68% 30.23 in 10.0 mi South 5.8 mph - N/A   Clear
9:51 PM 64.9 °F 57.0 °F 75% 30.24 in 10.0 mi South 4.6 mph - N/A   Clear
10:51 PM 64.0 °F 57.0 °F 78% 30.24 in 10.0 mi SSE 6.9 mph - N/A   Clear
11:10 PM 64.4 °F 57.2 °F 77% 30.24 in 10.0 mi SSE 5.8 mph - N/A   Mostly Cloudy
11:51 PM 64.9 °F 57.0 °F 75% 30.24 in 10.0 mi SE 5.8 mph - N/A   Overcast